Regional Weather Roundup
Issued by NWS

Home | Current Version | Previous Version | Graphics & Text | Print | Product List | Glossary On
Versions: 1 2 3 4 5 6 7 8 9 10 11 12 13 14 15 16 17 18 19 20 21 22 23 24 25 26 27 28 29 30 31 32 33 34 35 36 37 38 39 40 41 42 43 44 45 46 47 48 49 50
230
ASUS45 KSLC 271410
RWRUT

UTAH REGIONAL WEATHER ROUNDUP
NATIONAL WEATHER SERVICE SALT LAKE CITY UT
800 AM MDT FRI MAY 27 2016

UTZ001>011-023>025-271500-

NORTHERN UTAH

CITY           SKY/WX    TMP DP  RH WIND       PRES   REMARKS
BRIGHAM CITY     N/A     51  45  78 NW3       29.99R
HILL AFB       SUNNY     49  39  68 E14       29.99R
LOGAN          SUNNY     46  44  93 NW3       29.99R
OGDEN          MOSUNNY   53  42  66 S8        29.97R
PROVO AIRPORT  MOSUNNY   48  36  61 E5        30.01R
SALT LAKE CITY PTSUNNY   56  43  61 SE9       29.97S
VERNAL         PTSUNNY   54  38  54 SW7       29.97S
WENDOVER       MOSUNNY   57  37  47 CALM      29.98S
HEBER CITY     MOSUNNY   41  36  81 CALM      30.04R
WEST JORDAN    MOSUNNY   54  45  71 S6        30.00R

$$

UTZ012>022-026-027-271500-

SOUTHERN/CENTRAL UTAH

CITY           SKY/WX    TMP DP  RH WIND       PRES   REMARKS
BLANDING       SUNNY     51  34  53 CALM      30.05R
BRYCE CANYON   SUNNY     44  35  70 W9        30.10R
CEDAR CITY     MOSUNNY   41  36  82 CALM      30.04R
DELTA          PTSUNNY   46  39  76 CALM      30.02R
HANKSVILLE     SUNNY     52  32  46 CALM      29.97S
MILFORD        CLOUDY    47  39  74 SW12      30.02R
MOAB/CYNLANDS  SUNNY     57  34  41 VRB3      29.94R
PRICE          SUNNY     55  34  45 NW8       29.98S
ST GEORGE      MOSUNNY   59  34  38 N3        29.98R
KANAB          MOSUNNY   50  37  62 CALM      30.06R

$$

REGIONAL REPORTS     COLORADO/ARIZONA

CITY           SKY/WX    TMP DP  RH WIND       PRES   REMARKS
CRAIG, CO      CLOUDY    44  39  82 CALM      30.00S
GRAND JUNCTION SUNNY     54  40  59 S5        29.94R
RIFLE          CLOUDY    50  41  71 CALM      29.97R
MONTROSE       CLOUDY    49  39  68 SE6       30.00R
CORTEZ         SUNNY     47  35  63 NE5       29.99R
PAGE, AZ       SUNNY     59  34  39 SE6       29.96R
GRAND CANYON   SUNNY     44  30  57 CALM      30.09R
KINGMAN        SUNNY     65  30  27 CALM      29.95R
FLAGSTAFF      SUNNY     47  30  51 CALM      30.09R

$$

REGIONAL REPORTS    NEVADA/IDAHO/WYOMING

CITY           SKY/WX    TMP DP  RH WIND       PRES   REMARKS
LAS VEGAS, NV  MOSUNNY   68  35  29 CALM      29.86R
ELY            MOSUNNY   40  34  79 S7        30.07S
ELKO           MOSUNNY   45  40  82 CALM      30.02S
POCATELLO, ID  CLOUDY    56  40  55 SW8       29.97R
BURLEY         SUNNY     53  40  61 W10G17    29.96R
EVANSTON, WY   CLOUDY    42  35  76 S8        30.05R
ROCK SPRINGS   SUNNY     43  42  97 W8        30.02R
KEMMERER         N/A     45  36  70 CALM      30.05R

$$




USA.gov is the U.S. government's official web portal to all federal, state and local government web resources and services.